Weather History for URKM - December, 2012

Change the Weather History Date:

Tuesday, December 11, 2012

  Actual Average Record
Temperature  
Mean Temperature 39 °F -  
Max Temperature 47 °F - - ()
Min Temperature 31 °F - - ()
Degree Days  
Heating Degree Days 26    
Moisture  
Dew Point 28 °F    
Average Humidity 72    
Maximum Humidity 87    
Minimum Humidity 43    
Precipitation  
Precipitation 0.00 in - - ()
Sea Level Pressure  
Sea Level Pressure 29.84 in    
Wind  
Wind Speed 8 mph ()    
Max Wind Speed 16 mph    
Max Gust Speed 25 mph    
Visibility 12.0 miles    
Events      
T = Trace of Precipitation, MM = Missing Value Source: Averaged Metar Reports

Daily Weather History Graph

Daily Weather History Graph

Search for Another Location

Airport or City:

Trip Planner

Search our weather history database for the weather conditions in past years. The results will help you decide how hot, cold, wet, or windy it might be!

Date:

Astronomy

Dec. 11, 2012 Rise Set
Actual Time 8:46 AM MSK 5:39 PM MSK
Civil Twilight 8:13 AM MSK 6:12 PM MSK
Nautical Twilight 7:36 AM MSK 6:49 PM MSK
Astronomical Twilight 7:00 AM MSK 7:25 PM MSK
Moon 6:12 AM MSK (12/11) 4:02 PM MSK (12/11)
Length of Visible Light 9h 59m
Length of Day
8h 52m
Waning Crescent, 6% of the Moon is Illuminated
Dec 11
Waning Crescent
Dec 13
New
Dec 20
First Quarter
Dec 28
Full
Jan 5
Last Quarter

Hourly Weather History & Observations

Time (MSK) Temp. Windchill Dew Point Humidity Pressure Visibility Wind Dir Wind Speed Gust Speed Precip Events Conditions
12:00 AM 33.8 °F 27.9 °F 28.4 °F 81% 29.83 in - ESE 6.7 mph - N/A   Clear
1:00 AM 33 °F - 27 °F 71% 29.87 in 12 mi East 6.7 mph - -  
1:00 AM 33.8 °F 27.9 °F 28.4 °F 81% 29.80 in - East 6.7 mph - N/A   Clear
2:00 AM 32.0 °F 24.3 °F 28.4 °F 87% 29.80 in - East 8.9 mph - N/A   Clear
3:00 AM 32.0 °F 24.3 °F 28.4 °F 87% 29.77 in - East 8.9 mph - N/A   Clear
4:00 AM 32 °F - 27 °F 73% 29.85 in 12 mi ENE 6.7 mph - -  
4:00 AM 32.0 °F 25.7 °F 26.6 °F 80% 29.77 in - East 6.7 mph - N/A   Clear
5:00 AM 32.0 °F 25.7 °F 28.4 °F 87% 29.77 in - East 6.7 mph - N/A   Clear
6:00 AM 32.0 °F 24.3 °F 28.4 °F 87% 29.77 in - East 8.9 mph - N/A   Clear
7:00 AM 33 °F - 28 °F 73% 29.83 in 12 mi ENE 6.7 mph - -  
7:00 AM 33.8 °F 27.9 °F 26.6 °F 75% 29.77 in - East 6.7 mph - N/A   Clear
8:00 AM 33.8 °F 26.5 °F 26.6 °F 75% 29.77 in - ESE 8.9 mph - N/A   Clear
9:00 AM 32.0 °F 25.7 °F 26.6 °F 80% 29.80 in - ENE 6.7 mph - N/A   Clear
10:00 AM 33 °F - 26 °F 65% 29.86 in 12 mi ENE 4.5 mph - -  
10:00 AM 33.8 °F 27.9 °F 30.2 °F 87% 29.80 in - East 6.7 mph - N/A   Clear
11:00 AM 37.4 °F 30.9 °F 30.2 °F 75% 29.80 in - East 8.9 mph - N/A   Clear
12:00 PM 39.2 °F 31.3 °F 28.4 °F 65% 29.83 in - East 13.4 mph 22.4 mph N/A   Clear
1:00 PM 44 °F - 29 °F 43% 29.86 in 12 mi East 8.9 mph - -   Clear
1:00 PM 44.6 °F 37.6 °F 30.2 °F 57% 29.83 in - East 15.7 mph 22.4 mph N/A   Clear
2:00 PM 46.4 °F 39.9 °F 28.4 °F 50% 29.83 in - East 15.7 mph 22.4 mph N/A   Clear
3:00 PM 46.4 °F 39.9 °F 28.4 °F 50% 29.83 in - East 15.7 mph 24.6 mph N/A   Clear
4:00 PM 46 °F - 31 °F 44% 29.85 in 12 mi East 8.9 mph - -   Clear
4:00 PM 46.4 °F 40.5 °F 30.2 °F 53% 29.83 in - East 13.4 mph 22.4 mph N/A   Clear
5:00 PM 42.8 °F 35.2 °F 30.2 °F 61% 29.83 in - ENE 15.7 mph 22.4 mph N/A   Clear
6:00 PM 37.4 °F 28.3 °F 26.6 °F 65% 29.86 in - East 15.7 mph 24.6 mph N/A   Clear
7:00 PM 37 °F - 30 °F 68% 30.10 in 12 mi East 8.9 mph - -   Scattered Clouds
7:00 PM 37.4 °F 28.3 °F 30.2 °F 75% 29.86 in - East 15.7 mph 24.6 mph N/A   Clear
8:00 PM 33.8 °F 25.4 °F 28.4 °F 81% 29.86 in - East 11.2 mph 17.9 mph N/A   Clear
9:00 PM 33.8 °F 26.5 °F 28.4 °F 81% 29.86 in - East 8.9 mph - N/A   Clear
10:00 PM 33 °F - 26 °F 67% 29.96 in 12 mi East 6.7 mph - -  
10:00 PM 33.8 °F 27.9 °F 28.4 °F 81% 29.89 in - East 6.7 mph - N/A   Clear
11:00 PM 32.0 °F 25.7 °F 28.4 °F 87% 29.92 in - East 6.7 mph - N/A   Clear